Autodesk Price to Book Ratio 2006-2021 | ADSK

Historical price to book ratio values for Autodesk (ADSK) over the last 10 years. The current price to book ratio for Autodesk as of September 20, 2021 is 47.71.

Please refer to the Stock Price Adjustment Guide for more information on our historical prices.

Autodesk Price/Book Ratio Historical Data
Date Stock Price Book Value per Share Price to Book Ratio
2021-09-20 283.60 46.96
2021-07-31 321.13 $6.04 53.17
2021-04-30 291.91 $5.13 56.92
2021-01-31 277.43 $4.40 63.10
2020-10-31 235.54 $0.32 747.27
2020-07-31 236.43 $0.31 770.38
2020-04-30 187.13 $-0.63 -294.88
2020-01-31 196.85 $-0.63 -310.49
2019-10-31 147.36 $-0.78 -189.07
2019-07-31 156.17 $-0.88 -176.50
2019-04-30 178.21 $-1.12 -159.56
2019-01-31 147.20 $-0.96 -153.13
2018-10-31 129.25 $-1.54 -83.67
2018-07-31 128.44 $-1.11 -116.22
2018-04-30 125.90 $-0.59 -214.55
2018-01-31 115.62 $-1.17 -98.59
2017-10-31 124.96 $0.49 256.54
2017-07-31 110.79 $1.44 76.97
2017-04-30 90.07 $2.31 39.07
2017-01-31 81.34 $3.33 24.43
2016-10-31 72.28 $4.77 15.17
2016-07-31 59.45 $6.00 9.91
2016-04-30 59.82 $6.39 9.36
2016-01-31 46.82 $7.22 6.49
2015-10-31 55.19 $7.69 7.18
2015-07-31 50.58 $8.41 6.01
2015-04-30 56.83 $9.77 5.82
2015-01-31 54.01 $9.78 5.52
2014-10-31 57.54 $9.97 5.77
2014-07-31 53.35 $10.05 5.31
2014-04-30 48.02 $10.04 4.78
2014-01-31 51.25 $9.98 5.14
2013-10-31 39.90 $9.58 4.16
2013-07-31 35.39 $9.20 3.85
2013-04-30 39.38 $9.27 4.25
2013-01-31 38.88 $9.14 4.25
2012-10-31 31.85 $8.98 3.55
2012-07-31 33.92 $9.04 3.75
2012-04-30 39.37 $8.90 4.42
2012-01-31 36.00 $8.34 4.32
2011-10-31 34.60 $8.06 4.29
2011-07-31 34.40 $7.82 4.40
2011-04-30 44.98 $7.58 5.93
2011-01-31 40.68 $7.09 5.74
2010-10-31 36.20 $6.84 5.29
2010-07-31 29.54 $6.71 4.40
2010-04-30 33.99 $6.60 5.15
2010-01-31 23.79 $6.44 3.70
2009-10-31 24.93 $6.23 4.00
2009-07-31 21.81 $6.03 3.62
2009-04-30 19.94 $5.82 3.43
2009-01-31 16.56 $5.79 2.86
2008-10-31 21.31 $6.19 3.44
2008-07-31 31.89 $5.60 5.69
2008-04-30 38.00 $5.07 7.50
2008-01-31 41.15 $5.35 7.69
2007-10-31 48.90 $5.11 9.58
2007-07-31 42.37 $4.84 8.76
2007-04-30 41.27 $5.38 7.67
2007-01-31 43.72 $4.82 9.06
2006-10-31 36.75 $4.33 8.49
2006-07-31 34.11 $3.87 8.81
2006-04-30 42.04 $3.65 11.51
2006-01-31 40.59 $3.50 11.61
Sector Industry Market Cap Revenue
Computer and Technology Computer Software $63.350B $3.790B
Autodesk, Inc., is a leader in 3D design, engineering and entertainment software. Since its introduction of AutoCAD software in 1982, Autodesk continues to develop the broadest portfolio of 3D software for global markets. Customers across the manufacturing, architecture, building, construction, and media and entertainment industries-including the last 19 Academy Award winners for Best Visual Effects-use Autodesk software to design, visualize, and simulate their ideas before they're ever built or created. From blockbuster visual effects and buildings that create their own energy, to electric cars and the batteries that power them, the work of our 3D software customers is everywhere you look. Through their apps for iPhone, iPad, iPod, and Android, they're also making design technology accessible to professional designers and amateur designers, homeowners, students, and casual creators - anyone who wants to create and share their ideas with the world.
Stock Name Country Market Cap PE Ratio
Microsoft (MSFT) United States $2253.490B 37.63
Adobe (ADBE) United States $311.794B 67.19
Salesforce, Inc (CRM) United States $255.059B 76.18
Oracle (ORCL) United States $236.551B 20.42
SAP SE (SAP) Germany $176.069B 22.39
Intuit (INTU) United States $153.437B 74.91
Dassault Systemes SA (DASTY) France $78.049B 68.53
VMware (VMW) United States $58.487B 27.49
Synopsys (SNPS) United States $49.646B 67.82
Cadence Design Systems (CDNS) United States $45.290B 63.42
ANSYS (ANSS) United States $31.815B 63.97
SS&C Technologies Holdings (SSNC) United States $17.957B 16.10
Nuance Communications (NUAN) United States $17.330B 153.06
PTC (PTC) United States $14.454B 50.47
Open Text (OTEX) Canada $13.906B 15.84
Citrix Systems (CTXS) United States $13.861B 32.62
Pegasystems (PEGA) United States $10.746B 0.00
Manhattan Associates (MANH) United States $9.934B 105.87
Aspen Technology (AZPN) United States $8.519B 0.00
Trend Micro (TMICY) Japan $8.059B 30.14
Descartes Systems Group (DSGX) Canada $7.076B 100.75
MicroStrategy (MSTR) United States $5.988B 111.08
BlackBerry (BB) Canada $5.687B 250.75
Cornerstone OnDemand (CSOD) United States $3.815B 22.15
ACI Worldwide (ACIW) United States $3.677B 21.44
Blackbaud (BLKB) United States $3.401B 57.98
CommVault Systems (CVLT) United States $3.396B 88.13
Verint Systems (VRNT) United States $2.904B 21.04
Progress Software (PRGS) United States $2.017B 15.57
Bottomline Technologies (EPAY) United States $1.855B 176.70
QAD (QADB) United States $1.838B 121.51
PROS Holdings (PRO) United States $1.760B 0.00
Sapiens (SPNS) Israel $1.582B 28.31
Canaan (CAN) China $1.267B 0.00
OptimizeRx (OPRX) United States $1.260B 650.00
Avid Technology (AVID) United States $1.228B 30.59
Magic Software Enterprises (MGIC) Israel $1.014B 24.62
Simulations Plus (SLP) United States $0.880B 76.67
American Software (AMSWA) United States $0.811B 87.00
Icad Inc (ICAD) United States $0.261B 0.00
Smith Micro Software (SMSI) United States $0.249B 0.00
ServiceSource (SREV) United States $0.131B 0.00
Park City (PCYG) United States $0.105B 48.91
Neonode (NEON) Sweden $0.069B 0.00
BSQUARE (BSQR) United States $0.050B 0.00
NetSol Technologies (NTWK) United States $0.045B 17.95
GSE Systems (GVP) United States $0.028B 0.00